Location: Hernandez
(10.3704°N, 67.2181°W)
Time: 15:00:31
(UTC+00:00)

Daily predictions for brighter satellites

Satellite Brightness Start Highest point End
(mag) Time Altitude Azimuth Time Altitude Azimuth Time Altitude Azimuth
DELTA 4 R/B 4.2 22:51:21 10° SW 22:59:04 38° SSE 23:06:39 10° E
Cosmos 2242 Rocket 3.6 22:56:16 10° N 23:00:38 63° E 23:05:02 10° SSE
Meteor 1-4 Rocket 2.0 23:00:07 10° N 23:03:06 67° E 23:06:06 10° SSE
H-2A R/B 4.2 14:49:24 10° WSW 23:03:57 71° SSE 23:09:55 10° ENE
SKYMED 3 4.4 23:03:49 10° NNE 23:07:54 87° E 23:12:01 10° S
Cosmos 1954 Rocket 4.4 23:03:12 10° N 23:08:11 42° ENE 23:13:08 10° SSE
Cosmos 1408 3.0 23:06:04 10° NNE 23:08:47 28° E 23:11:28 10° SSE
BREEZE-M DEB (TANK) 3.5 23:09:50 10° NNE 23:11:33 16° ENE 23:13:16 12° E
Cosmos 1455 3.6 23:10:10 10° SE 23:12:27 16° E 23:14:45 10° NE
Cosmos 2074 Rocket 4.0 23:06:35 10° N 23:12:42 60° E 23:18:47 10° SSE
Tiangong -2.1 23:11:28 10° SW 23:14:28 56° SE 23:17:29 10° ENE
IGS 5A 3.3 23:11:08 10° SSE 23:15:12 78° E 23:19:16 10° N
ADEOS Rocket 3.1 23:11:09 10° SSE 23:16:50 46° ENE 23:22:07 10° N
Cosmos 1242 Rocket 3.3 23:16:31 10° NNE 23:18:52 21° E 23:20:17 15° ESE
NOSS 3-1 (A) 3.8 23:15:20 10° SSE 23:18:56 22° ESE 23:22:32 10° ENE
Cosmos 1953 2.7 23:16:14 10° SSE 23:19:45 36° E 23:23:15 10° NNE
CZ-4B R/B 4.1 23:17:18 11° ESE 23:19:59 20° ENE 23:22:52 10° NNE
COSMOS 2406 3.9 23:14:55 10° N 23:20:02 33° ENE 23:25:07 10° SE
Cosmos 1818 3.5 23:16:53 10° NNW 23:22:18 77° ENE 23:27:41 10° SSE
Cosmos 1607 4.1 23:16:23 10° N 23:22:29 51° ENE 23:28:28 10° SE
Cosmos 2369 Rocket 3.0 23:20:18 10° SSW 23:25:52 55° WNW 23:31:25 10° N
ADEOS 3.8 23:22:58 10° SSE 23:27:58 49° ENE 23:32:59 10° N
Meteor PRIRODA 3.6 23:24:43 10° SSE 23:28:00 48° ENE 23:31:17 10° N
Cosmos 1992 Rocket 4.5 23:27:26 10° SSE 23:32:08 35° E 23:36:49 10° NE
CZ-3C R/B 3.6 23:18:27 10° WNW 23:33:19 35° SW 23:36:43 12° SSE
CZ-4B R/B 3.6 23:31:10 10° S 23:36:17 81° WSW 23:41:15 10° NNW
Atlas Centaur 2 2.3 23:30:39 10° WSW 23:36:27 63° NNW 23:40:44 12° NE
EPKM 4.2 23:36:36 10° SW 23:40:21 61° SSE 23:57:33 10° ENE
NOSS 3-1 (C) 3.4 23:36:36 10° SW 23:41:06 55° WNW 23:45:43 10° NNE
DELTA 2 DEB (DPAF) 3.9 23:41:48 10° NNE 23:46:00 66° ESE 23:50:10 10° S
GPS 2-17 Rocket1 4.2 23:46:01 10° NW 23:49:51 30° N 23:51:27 23° NE
Centaur D AC-29 2.8 23:50:04 10° SSW 23:54:23 20° SSE 23:54:40 20° SSE
